[[{"header":{"parameterUnit":"m.s-1","parameterCategory":1,"la1":30.2991,"la2":30.254,"lo1":-89.0895,"lo2":-89.0444,"dy":0.0017,"dx":0.0017,"nx":28,"ny":28,"refTime":"2025-07-29T21:00:00:Z","depth":0,"parameterNumber":2,"parameterNumberName":"U-component_of_WINDS"},"data":[0,0,0,0,0,0,0,0,0,0,0,0,0,0,0,0,0,0,0,0,0,0,0,0,0,0,0,0,0,0,0,0,0,0,0,0,0,0,0,0,0,0,0,0,0,0,0,0,0,0,0,0,0,0,0,0,0,0,4.0532,4.0532,0,4.0591,4.0591,4.0592,4.0513,4.051,4.0507,4.0505,4.0565,4.0569,4.0573,0,0,0,0,0,0,0,0,0,0,0,0,0,4.0352,4.0355,4.0532,4.0533,4.0533,4.0591,4.0591,4.0592,4.0514,4.051,4.0507,4.0503,4.0564,4.0569,4.0574,0,0,0,0,0,0,0,0,0,0,0,0,0,4.0422,4.0357,4.0532,4.0501,4.0499,4.0591,4.0592,4.0592,4.0514,4.051,4.0506,4.0502,4.0562,4.0568,4.0575,4.0699,0,0,4.0594,4.0597,0,0,0,0,0,0,0,0,4.0418,4.0429,4.0505,4.0503,4.0501,4.054,4.055,4.0628,4.0515,4.0508,4.0505,4.05,4.056,4.0567,4.0587,4.0702,4.0705,4.0595,4.0598,4.0601,4.0603,0,0,0,0,0,0,0,4.0414,4.0426,4.0555,4.0506,4.0504,4.0484,4.049,4.0564,4.0558,4.0509,4.0503,4.0511,4.0558,4.0581,4.0588,4.0706,4.0594,4.06,4.0604,4.0607,4.0927,4.0931,0,0,0,0,0,0,4.0412,4.0422,4.0553,4.0557,4.0448,4.0491,4.0497,4.0532,4.0556,4.0556,4.0515,4.0507,4.0572,4.058,4.059,4.0738,4.0601,4.0607,4.0611,4.0922,4.0928,4.0933,0,0,0,0,0,0,4.0409,4.0425,4.0551,4.0488,4.0503,4.0499,4.0539,4.0535,4.0558,4.0561,4.0559,4.0539,4.0569,4.0581,4.0673,4.0739,4.061,4.0616,4.0917,4.0924,4.093,4.1035,0,0,0,0,0,0,4.0404,4.0424,4.0471,4.049,4.0506,4.0633,4.0543,4.054,4.0569,4.056,4.0583,4.0583,4.0567,4.0664,4.0679,4.0745,4.0621,4.0911,4.092,4.0928,4.1025,4.1044,4.1061,0,0,0,0,0,4.0398,4.0498,4.0474,4.049,4.0565,4.0637,4.0647,4.0625,4.0575,4.0622,4.0624,4.0583,4.0729,4.0674,4.0691,4.0759,4.0907,4.0917,4.0928,4.1017,4.1041,4.106,0,0,0,0,0,0,4.0486,4.05,4.0473,4.0582,4.0609,4.0624,4.0683,4.0651,4.0692,4.0682,4.0654,4.066,4.0759,4.0768,4.0706,4.0882,4.0809,4.0824,4.0872,4.0894,4.0911,4.0907,4.0626,0,0,0,0,0,4.0519,4.0576,4.0584,4.068,4.0695,4.0687,4.0717,4.0699,4.0725,4.0736,4.0745,4.0773,4.0825,4.086,4.0908,4.1026,4.1031,4.1082,4.11,4.1114,4.1127,4.1191,4.1214,4.0967,4.0967,4.0967,0,0,4.0586,4.06,4.0638,4.0698,4.0717,4.0777,4.0697,4.0763,4.0808,4.0746,4.0834,4.0842,4.0871,4.0977,4.1024,4.0988,4.1196,4.1128,4.1139,4.1144,4.1204,4.1227,4.1248,4.0975,4.0973,4.0972,0,0,4.0739,4.0755,4.0837,4.0858,4.0887,4.0881,4.0901,4.0921,4.0924,4.1012,4.0967,4.102,4.111,4.1133,4.1156,4.132,4.1283,4.1336,4.1428,4.1491,4.151,4.1527,4.1586,4.1607,4.1349,4.1349,4.1349,0,4.0818,4.0907,4.0883,4.0953,4.0981,4.0929,4.1012,4.1033,4.1077,4.1098,4.1057,4.117,4.1186,4.1296,4.1336,4.1357,4.1379,4.1333,4.1509,4.1526,4.1542,4.1597,4.1619,4.1355,4.1355,4.1354,4.1353,0,4.1003,4.1066,4.1128,4.1173,4.1208,4.1284,4.1272,4.1311,4.129,4.1288,4.1379,4.1396,4.1447,4.1472,4.1452,4.1581,4.1557,4.1514,4.144,4.1572,4.1623,4.1644,4.1364,4.1362,4.136,4.1359,0,0,4.1212,4.1244,4.1267,4.1287,4.1316,4.1364,4.1439,4.1489,4.1523,4.1555,4.1617,4.1695,4.1655,4.1682,4.1664,4.1719,4.1848,4.1668,4.1668,4.1701,4.1991,4.2024,4.2048,4.1824,4.1828,4.1831,4.1988,0,4.1365,4.1494,4.1475,4.1599,4.1657,4.1609,4.1674,4.1699,4.1701,4.175,4.1751,4.1807,4.175,4.1766,4.1818,4.1821,4.1906,4.181,4.1881,4.1884,4.1875,4.2075,4.211,4.2258,4.2008,4.2012,4.2014,0,4.156,4.1601,4.1731,4.1752,4.1776,4.1834,4.188,4.1927,4.1956,4.1953,4.1984,4.1956,4.2031,4.1957,4.2059,4.1994,4.2023,4.2029,4.2034,4.2039,4.1957,4.2086,4.2304,4.2326,4.2046,4.2043,4.2041,0,4.17,4.1787,4.1876,4.1894,4.1922,4.1964,4.1978,4.2002,4.2034,4.2073,4.2094,4.2142,4.2168,4.2206,4.2192,4.2139,4.2298,4.2222,4.2297,4.2298,4.2332,4.233,4.2558,4.2351,4.2351,4.2351,4.235,0,4.1872,4.1954,4.1939,4.1994,4.2084,4.2062,4.2152,4.2159,4.2182,4.2237,4.2199,4.2252,4.2231,4.2283,4.2273,4.2359,4.2371,4.2371,4.2367,4.2374,4.2374,4.2392,4.2381,4.2356,4.2355,4.2354,4.2353,0,4.2043,4.2036,4.213,4.2149,4.2156,4.2222,4.2238,4.2289,4.2288,4.2359,4.2375,4.2373,4.2432,4.2422,4.2488,4.2481,4.2589,4.2573,4.258,4.2576,4.2651,4.2644,4.2898,4.293,4.2703,4.2706,4.2707,0,4.2153,4.2214,4.224,4.2275,4.2292,4.2348,4.2381,4.2363,4.2398,4.2436,4.2483,4.2539,4.2582,4.2679,4.2684,4.2734,4.2718,4.2804,4.2725,4.2731,4.2719,4.2716,4.2722,4.2819,4.2822,4.2824,4.2825,0,4.2349,4.2343,4.2392,4.244,4.248,4.2517,4.2551,4.2581,4.2566,4.2608,4.2668,4.2702,4.277,4.2826,4.2873,4.2886,4.2854,4.285,4.287,4.2878,4.2879,4.2879,4.2622,4.2844,4.2842,4.2841,4.284,4.2839,4.2492,4.2545,4.2572,4.2628,4.2651,4.2684,4.2733,4.2739,4.2789,4.2843,4.2829,4.2898,4.2925,4.2985,4.3004,4.3057,4.3026,4.3055,4.3062,4.3069,4.3078,4.2871,4.3066,4.3065,4.3065,4.3064,4.3064,0,4.2686,4.2701,4.2753,4.2801,4.2846,4.2812,4.2848,4.2887,4.2948,4.2976,4.3021,4.309,4.3145,4.3154,4.3206,4.3247,4.3234,4.3261,4.3258,4.3261,4.3104,4.3081,4.3271,4.3271,4.3271,4.3271,4.3271,4.3271,4.2792,4.288,4.2878,4.2977,4.2992,4.3059,4.3083,4.3112,4.3135,4.3215,4.326,4.3267,4.3288,4.3341,4.339,4.3391,4.3412,4.3445,4.3441,4.3293,4.3273,4.3253,4.3231,4.345,4.345,4.3594,4.3596,4.3597]},{"header":{"parameterUnit":"m.s-1","parameterCategory":1,"la1":30.2991,"la2":30.254,"lo1":-89.0895,"lo2":-89.0444,"dy":0.0017,"dx":0.0017,"nx":28,"ny":28,"refTime":"2025-07-29T21:00:00:Z","depth":0,"parameterNumber":3,"parameterNumberName":"V-component_of_WINDS"},"data":[0,0,0,0,0,0,0,0,0,0,0,0,0,0,0,0,0,0,0,0,0,0,0,0,0,0,0,0,0,0,0,0,0,0,0,0,0,0,0,0,0,0,0,0,0,0,0,0,0,0,0,0,0,0,0,0,0,0,2.8087,2.8089,0,2.8202,2.8203,2.8205,2.8255,2.8255,2.8255,2.8255,2.8374,2.8377,2.8381,0,0,0,0,0,0,0,0,0,0,0,0,0,2.7913,2.7916,2.8087,2.8089,2.809,2.8202,2.8203,2.8205,2.8255,2.8255,2.8255,2.8255,2.8373,2.8377,2.8381,0,0,0,0,0,0,0,0,0,0,0,0,0,2.8004,2.7916,2.8087,2.8129,2.8134,2.8201,2.8203,2.8205,2.8255,2.8255,2.8255,2.8255,2.8372,2.8376,2.8381,2.8417,0,0,2.8397,2.8399,0,0,0,0,0,0,0,0,2.7999,2.801,2.8121,2.8126,2.8132,2.8214,2.8185,2.8276,2.8255,2.8209,2.8255,2.8255,2.8321,2.833,2.8352,2.8422,2.8428,2.8397,2.84,2.8402,2.8404,0,0,0,0,0,0,0,2.7992,2.8006,2.8133,2.8123,2.8129,2.8142,2.8155,2.8203,2.8265,2.8213,2.8217,2.823,2.8324,2.8347,2.8355,2.8429,2.8397,2.8401,2.8404,2.8406,2.8533,2.8533,0,0,0,0,0,0,2.7979,2.8,2.8129,2.8136,2.8063,2.8145,2.8159,2.8188,2.8265,2.8276,2.823,2.8232,2.8339,2.835,2.836,2.8406,2.8402,2.8407,2.841,2.8533,2.8533,2.8533,0,0,0,0,0,0,2.7975,2.799,2.8124,2.8069,2.8087,2.8148,2.818,2.819,2.8214,2.8277,2.8289,2.8242,2.8339,2.8353,2.8402,2.8411,2.8409,2.8414,2.8532,2.8533,2.8533,2.8498,0,0,0,0,0,0,2.797,2.7988,2.8002,2.8069,2.809,2.8164,2.8181,2.8193,2.8222,2.8225,2.8292,2.8303,2.834,2.8394,2.8407,2.8417,2.8418,2.8532,2.8532,2.8533,2.8499,2.8497,2.8496,0,0,0,0,0,2.7963,2.7989,2.8003,2.8018,2.8109,2.8165,2.8177,2.8218,2.8222,2.8237,2.8278,2.8301,2.8407,2.8399,2.8413,2.8426,2.8531,2.8532,2.8533,2.8499,2.8498,2.8496,0,0,0,0,0,0,2.7923,2.7998,2.8015,2.8062,2.8107,2.8173,2.8193,2.8215,2.826,2.8261,2.8312,2.8326,2.8371,2.8403,2.8392,2.8463,2.8471,2.8475,2.8441,2.844,2.8438,2.843,2.8422,0,0,0,0,0,2.7919,2.7957,2.8022,2.8057,2.8079,2.8132,2.8158,2.8186,2.8234,2.8253,2.8297,2.8343,2.8387,2.8415,2.8459,2.8503,2.8518,2.8519,2.8518,2.8516,2.8519,2.8544,2.8545,2.8536,2.8536,2.8536,0,0,2.7912,2.7958,2.798,2.805,2.8088,2.8127,2.8147,2.8188,2.8217,2.8259,2.8308,2.8342,2.8397,2.8443,2.8466,2.8472,2.8525,2.8517,2.8516,2.852,2.8545,2.8546,2.8546,2.8537,2.8537,2.8537,0,0,2.792,2.7958,2.7992,2.8029,2.8085,2.812,2.8127,2.819,2.8214,2.8263,2.8295,2.8331,2.8406,2.8443,2.8472,2.8491,2.8514,2.8504,2.8498,2.8521,2.8522,2.8523,2.8529,2.8531,2.8506,2.8506,2.8506,0,2.7904,2.7964,2.8006,2.8045,2.8075,2.8113,2.8147,2.8181,2.8249,2.8269,2.8274,2.8367,2.8407,2.8462,2.8466,2.8488,2.8499,2.8497,2.8518,2.852,2.8521,2.8528,2.853,2.8505,2.8505,2.8505,2.8505,0,2.7942,2.7983,2.8003,2.8066,2.8098,2.8134,2.8182,2.821,2.8234,2.8268,2.8318,2.8366,2.842,2.8435,2.846,2.8493,2.8495,2.8508,2.8518,2.852,2.8527,2.853,2.8503,2.8503,2.8504,2.8504,0,0,2.7928,2.8013,2.802,2.8049,2.8112,2.8145,2.8182,2.8234,2.8256,2.8301,2.8334,2.8395,2.8407,2.8439,2.8469,2.849,2.8501,2.8501,2.8503,2.8499,2.854,2.853,2.8532,2.8516,2.8517,2.8517,2.8535,0,2.7944,2.8013,2.8051,2.8104,2.8141,2.8178,2.821,2.8253,2.8285,2.8322,2.8358,2.84,2.8414,2.8433,2.8455,2.8495,2.851,2.8494,2.8547,2.8548,2.8532,2.8536,2.8526,2.8541,2.8539,2.8539,2.854,0,2.7973,2.8016,2.8071,2.813,2.8147,2.8176,2.8225,2.826,2.8309,2.8331,2.8366,2.8395,2.8435,2.844,2.8497,2.8485,2.8509,2.8531,2.8533,2.854,2.8544,2.8543,2.8547,2.8549,2.8545,2.8544,2.8544,0,2.7957,2.8029,2.8071,2.8094,2.8164,2.8183,2.8212,2.8261,2.8289,2.8332,2.8351,2.8399,2.8425,2.8461,2.8502,2.8502,2.8555,2.8563,2.8574,2.8573,2.8584,2.8583,2.8592,2.8599,2.8599,2.8599,2.8599,0,2.7971,2.8003,2.8065,2.8091,2.8128,2.8172,2.8207,2.824,2.8282,2.8316,2.835,2.838,2.8432,2.8469,2.8501,2.8542,2.8554,2.8573,2.8581,2.857,2.8568,2.8587,2.8587,2.8599,2.8599,2.8599,2.8599,0,2.796,2.8002,2.805,2.8111,2.8127,2.8152,2.8204,2.8231,2.8264,2.8305,2.8318,2.837,2.8415,2.8459,2.852,2.8541,2.8582,2.8593,2.8566,2.857,2.8579,2.8577,2.86,2.8606,2.8609,2.8608,2.8608,0,2.7966,2.7992,2.8055,2.8079,2.8108,2.8146,2.8175,2.8218,2.8247,2.8303,2.8322,2.8369,2.841,2.8479,2.8523,2.8569,2.8582,2.8587,2.8589,2.8577,2.8582,2.858,2.8583,2.8586,2.8585,2.8585,2.8585,0,2.7973,2.7992,2.8031,2.8078,2.811,2.8149,2.8189,2.8207,2.8258,2.8288,2.8334,2.8365,2.8426,2.8472,2.8523,2.8554,2.8578,2.8583,2.8589,2.8578,2.8561,2.857,2.8562,2.8583,2.8583,2.8583,2.8584,2.8584,2.7971,2.7995,2.8042,2.8085,2.8119,2.8156,2.8183,2.8219,2.8258,2.8311,2.8334,2.838,2.8427,2.8497,2.8528,2.8564,2.8571,2.8578,2.858,2.8581,2.8578,2.8554,2.8574,2.8574,2.8574,2.8574,2.8574,0,2.7979,2.8011,2.8049,2.8104,2.8137,2.8155,2.82,2.8227,2.8267,2.8308,2.8346,2.8398,2.8443,2.849,2.8537,2.8557,2.8569,2.8568,2.8567,2.8574,2.857,2.8561,2.8557,2.8557,2.8557,2.8557,2.8557,2.8557,2.7987,2.8029,2.8053,2.8112,2.8144,2.8189,2.8212,2.8246,2.8279,2.8335,2.8372,2.8402,2.8446,2.8496,2.8537,2.855,2.8566,2.8562,2.8577,2.8573,2.8574,2.8575,2.8567,2.8565,2.8565,2.8578,2.8578,2.8578]}]]